Regional Weather Roundup
Issued by NWS

Home | Current Version | Previous Version | Graphics & Text | Print | Product List | Glossary On
Versions: 1 2 3 4 5 6 7 8 9 10 11 12 13 14 15 16 17 18 19 20 21 22 23 24 25 26 27 28 29 30 31 32 33 34 35 36 37 38 39 40 41 42 43 44 45 46 47 48 49 50
000
ASUS45 KTFX 271419
RWRMT
MONTANA HOURLY WEATHER ROUNDUP
NATIONAL WEATHER SERVICE GREAT FALLS MT
719 AM MST THU NOV 27 2014

NOTE: "FAIR" INDICATES FEW OR NO CLOUDS BELOW 12000 FEET WITH NO
SIGNIFICANT WEATHER AND/OR OBSTRUCTIONS TO VISIBILITY.

* THESE STATIONS ARE NOT UNDER NWS QUALITY CONTROL. THEY DO NOT
   REPORT WEATHER SUCH AS PRECIPITATION OR FOG.

MTZ001>007-043-271500-
WEST OF THE DIVIDE
CITY           SKY/WX    TMP DP  RH WIND       PRES   REMARKS
KALISPELL      LGT RAIN  34  34 100 S5        29.87S WCI  29
MISSOULA       FOG       30  30 100 NW5       29.98F VSB 1/2  WCI  25
BUTTE          CLOUDY    46  28  50 N/A       30.04F
MULLAN PASS    LGT RAIN  36  32  85 SW16G30   29.93S WCI  26
* ESSEX        N/A       34  34 100 N/A        N/A
* EUREKA APT   CLOUDY    45  39  80 E10       29.81F
* HAMILTON APT CLOUDY    48  34  59 S13       30.00F
* LIBBY APT    CLOUDY    36  34  92 SE6       29.85S WCI  31
* LINCOLN      N/A       35  33  92 E2         N/A
* LOOKOUT PASS N/A       43  35  73 SE4G12     N/A
* POLSON       N/A       40  35  82 S3G8       N/A
* RONAN APT    MOCLDY    45  34  65 S8         N/A
* SEELEY LAKE  N/A       32  31  96 S1         N/A
* THOMP F APT  CLOUDY    32  28  85 NE2        N/A
* YAAK HILL    N/A       35  33  92 NE4        N/A
$$

MTZ008-052>055-271500-
SOUTHWEST MONTANA
CITY           SKY/WX    TMP DP  RH WIND       PRES   REMARKS
BOZEMAN        CLOUDY    34  28  79 SE8       30.00S WCI  27
DILLON         CLOUDY    45  25  45 S15       30.06F
* W YELLOWSTON CLOUDY    34  28  79 SW4G12     N/A
* ENNIS APT    CLOUDY    43  27  53 SE13G23    N/A
* THREE FORKS  CLOUDY    25   3  38 N/A        N/A
* BOULDER HILL N/A       42  21  43 SE9G18     N/A
* MONIDA PASS  N/A       30  30 100 E15G20     N/A   WCI  19
* RAYNOLDS PAS N/A       33  19  56 S12        N/A   WCI  24
* WHITEHALL    N/A       51  23  33 W15G27     N/A
* WISE RIVER   N/A       38  26  62 SE2G9      N/A
$$

MTZ009>010-012-014-046-048-049-054-271500-
EAST SLOPES AND CENTRAL MONTANA
CITY           SKY/WX    TMP DP  RH WIND       PRES   REMARKS
CUT BANK       FOG       28  27  96 SW9       29.72F WCI  19
GREAT FALLS    FAIR      41  30  65 SW15      29.81F
HELENA         FOG       25  21  85 VRB5      29.92F WCI  19
MALMSTROM AFB  PTCLDY    37  32  82 S14       29.82F WCI  28
* CONRAD       PTCLDY    18  16  92 CALM       N/A
* DEARBORN     N/A       54  29  38 SE10G22    N/A
* EAST GLACIER N/A       38  35  89 W33G43     N/A   WCI  25
* MONARCH      N/A       42  22  45 SW10G20    N/A
* PENDROY      N/A       46  28  50 S2G13      N/A
* ROGERS PASS  N/A       40  28  62 SE20G32    N/A   WCI  30
* SAINT MARY   N/A       40  36  86 SW15G32    N/A   WCI  32
* SWEET GRASS  N/A       25  25 100 S19G24     N/A   WCI  11
* WHITE SULPH  N/A       44  25  47 S12G22     N/A
$$

MTZ011-013-016-021-035-040-045-047-050-051-271500-
NORTH CENTRAL MONTANA
CITY           SKY/WX    TMP DP  RH WIND       PRES   REMARKS
HAVRE          CLOUDY    30  28  92 E8        29.79F WCI  22
LEWISTOWN      CLOUDY    43  30  60 SW16      29.86F
* N BAR RANCH  CLEAR     39  30  70 VRB3      29.86F
* CHINOOK      MOCLDY    28  27  96 E10G18    29.81F WCI  19
* FORT BENTON  PTCLDY    30  27  89 NW3       29.80F
* MALTA APT    CLOUDY    28  21  75 E5         N/A   WCI  22
* CHESTER      N/A       28  26  92 N/A        N/A
* DENTON       N/A       33  26  75 S11        N/A   WCI  24
* GEYSER       N/A       42  27  55 SW24       N/A
* JUDITH GAP   N/A       32  32 100 SE12G17    N/A   WCI  23
* LOMA         N/A       30  28  92 NE11       N/A   WCI  21
$$

MTZ017>020-022>027-061-062-271500-
NORTHEAST MONTANA
CITY           SKY/WX    TMP DP  RH WIND       PRES   REMARKS
GLASGOW        CLOUDY    21  18  88 SE20      29.94F WCI   6
GLENDIVE       CLOUDY    23  19  85 SE6       30.04F WCI  16
JORDAN         MOCLDY    28  25  89 SE10      29.92F WCI  19
SIDNEY         PTCLDY    19  14  81 E3        30.12F
WOLF POINT     LGT SNOW  19  14  81 E15       30.03F VSB 2 1/2 WCI   5
* BEAVER HILL  N/A       22  17  81 SE17G24    N/A   WCI   8
* CIRCLE       N/A       26  24  92 E3G12      N/A
* LINDSAY DVD  N/A       21  20  96 SE17       N/A   WCI   7
* NAVAJO       N/A       10   7  88 SE3        N/A
* PLENTYWOOD A PTCLDY   N/A N/A N/A N/A       30.08F
* POPLAR APT   PTCLDY    18  12  77 N/A       30.06F
* SACO         N/A       22  20  92 E16G21     N/A   WCI   8
* SCOBEY APT   PTCLDY    18   9  68 N/A        N/A
$$

MTZ028>042-056>058-271500-
SOUTHCENTRAL AND SOUTHEAST MONTANA
CITY           SKY/WX    TMP DP  RH WIND       PRES   REMARKS
BAKER          CLOUDY    21  18  88 SE18      30.05F WCI   6
BILLINGS       CLOUDY    30  27  89 SW12      29.93F WCI  20
LIVINGSTON     MOCLDY    46  30  54 SW31G41   29.94F
MILES CITY     CLOUDY    27  21  78 SE16      29.97F WCI  15
* BIG TIMBER A CLOUDY    45  28  51 SW15G25   29.91F
* FORSYTH APT  CLOUDY    28  28 100 SE7       29.94F WCI  21
* LAUREL APT   CLOUDY    30  25  82 N/A        N/A
* ALZADA       N/A       20  18  92 E8         N/A   WCI  10
* HYSHAM       N/A       33  26  75 W7G12      N/A   WCI  27
* LAME DEER    N/A       33  30  89 S7         N/A   WCI  27
* REED POINT   N/A       25  25 100 W1         N/A
* ROSCOE HILL  N/A       49  12  22 S23G35     N/A
$$

REGIONAL REPORTS...DAKOTAS
CITY           SKY/WX    TMP DP  RH WIND       PRES   REMARKS
WILLISTON      CLOUDY    12   9  88 SE5       30.15F WCI   4
DICKINSON      CLOUDY    16  12  84 S14       30.12F WCI   2
BEACH          CLOUDY    19  18  96 SE14      30.09F WCI   5
CROSBY         CLEAR     10   9  96 S8        30.16F WCI  -2
TIOGA          CLOUDY    10  10 100 SE12      30.19F WCI  -5
BISMARCK       PTCLDY    -9 -15  74 E8        30.35F WCI -25
GRAND FORKS    PTCLDY   -11 -17  74 S6        30.51S WCI -25
FARGO          PTCLDY    -9 -17  67 S5        30.53S WCI -21
BUFFALO SD     CLOUDY    19  16  88 SE15      30.04F WCI   5
RAPID CITY     CLOUDY    19  18  96 SE12      30.11F WCI   6
$$

REGIONAL REPORTS...WYOMING/IDAHO/WASHINGTON
CITY           SKY/WX    TMP DP  RH WIND       PRES   REMARKS
GILLETTE       CLOUDY    39  28  65 SW18      30.01S WCI  30
SHERIDAN       CLOUDY    23  19  85 SE5       29.99F WCI  16
CODY           MOCLDY    48  27  44 SW15G23   30.01R
YELLOWSTONE LA CLOUDY    28  27  96 CALM      30.21S
SALMON         CLOUDY    32  30  92 CALM      30.13F
MULLAN PASS    LGT RAIN  36  32  85 SW16G30   29.93S WCI  26
SAND POINT     FOG       36  36 100 CALM      29.87F VSB 3
SPOKANE        CLOUDY    48  39  71 SW17      29.86R
$$

REGIONAL REPORTS...ALBERTA
CITY           SKY/WX    TMP DP  RH WIND       PRES   REMARKS
CALGARY        LGT SNOW  23  21  92 E8        29.73F VSB 1 1/2 WCI  14
LETHBRIDGE     FOG       27  27 100 W8        29.67F VSB 1    WCI  19
MEDICINE HAT   FRZ RAIN  28  28 100 NE9       29.74F WCI  19
EDMONTON       LGT SNOW  14  10  84 NE16G22   29.95S VSB 3/4  WCI  -2
WATERTON GATE  N/A       41  36  82 SW30G43    N/A
CARDSTON       N/A       23  23 100 S7         N/A   WCI  15
MILK RIVER     N/A       27  27 100 S12        N/A   WCI  16
$$

REGIONAL REPORTS...SASKATCHEWAN
CITY           SKY/WX    TMP DP  RH WIND       PRES   REMARKS
SWIFT CURRENT  LGT SNOW  21  19  92 SE23G30   29.90F VSB 1 1/2 WCI   5
MOOSE JAW      CLOUDY    16  12  84 SE6       30.07F WCI   7
REGINA         MOCLDY     9   5  84 SE14      30.10F WCI  -7
VAL MARIE      N/A       23  21  92 SE15G21    N/A   WCI  10
ASSINIBOIA     N/A       12  10  92 SE9        N/A
CORONACH       N/A       12  10  92 SE9        N/A

$$



USA.gov is the U.S. government's official web portal to all federal, state and local government web resources and services.